Rockport, TX

7:01 AM CDT on October 24, 2017 (GMT -0500)
Aransas County

Weather History for KRKP - March, 2013

Change the Weather History Date:

Friday, March 29, 2013

  Actual Average Record
Temperature  
Mean Temperature 70 °F -  
Max Temperature 79 °F 76 °F 90 °F (1974)
Min Temperature 64 °F 59 °F 43 °F (1975)
Cooling Degree Days 6    
Growing Degree Days 20 (Base 50)    
Moisture  
Dew Point 62 °F    
Average Humidity 78    
Maximum Humidity 93    
Minimum Humidity 58    
Precipitation  
Precipitation 0.00 in - - ()
Sea Level Pressure  
Sea Level Pressure 30.15 in    
Wind  
Wind Speed 10 mph (SE)    
Max Wind Speed 20 mph    
Max Gust Speed 24 mph    
Visibility 10 miles    
Events      
Averages and records for this station are not official NWS values.
T = Trace of Precipitation, MM = Missing Value Source: NWS Daily Summary

Daily Weather History Graph

Daily Weather History Graph

Search for Another Location

Airport or City:

Trip Planner

Search our weather history database for the weather conditions in past years. The results will help you decide how hot, cold, wet, or windy it might be!

Date:

Astronomy

Mar. 29, 2013 Rise Set
Actual Time 7:21 AM CDT 7:44 PM CDT
Civil Twilight 6:57 AM CDT 8:08 PM CDT
Nautical Twilight 6:30 AM CDT 8:35 PM CDT
Astronomical Twilight 6:02 AM CDT 9:03 PM CDT
Moon 10:28 PM CDT (3/29) 8:46 AM CDT (3/29)
Length of Visible Light 13h 10m
Length of Day
12h 23m
Waning Gibbous, 93% of the Moon is Illuminated
Mar 29
Waning Gibbous
Apr 2
Last Quarter
Apr 10
New
Apr 18
First Quarter
Apr 25
Full

Hourly Weather History & Observations

Time (CDT) Temp. Dew Point Humidity Pressure Visibility Wind Dir Wind Speed Gust Speed Precip Events Conditions
12:53 AM 64.0 °F 61.0 °F 90% 30.17 in 10.0 mi SE 8.1 mph - N/A   Scattered Clouds
1:53 AM 64.9 °F 61.0 °F 87% 30.17 in 10.0 mi SSE 6.9 mph - N/A   Partly Cloudy
2:53 AM 64.9 °F 61.0 °F 87% 30.17 in 10.0 mi SSE 5.8 mph - N/A   Partly Cloudy
3:53 AM 64.9 °F 61.0 °F 87% 30.16 in 10.0 mi SE 5.8 mph - N/A   Overcast
4:53 AM 64.9 °F 61.0 °F 87% 30.15 in 10.0 mi SSE 5.8 mph - N/A   Overcast
5:53 AM 64.0 °F 61.0 °F 90% 30.15 in 10.0 mi SE 4.6 mph - N/A   Mostly Cloudy
6:53 AM 64.0 °F 61.0 °F 90% 30.15 in 10.0 mi SE 6.9 mph - N/A   Partly Cloudy
7:53 AM 64.0 °F 62.1 °F 93% 30.17 in 10.0 mi SE 8.1 mph - N/A   Clear
8:53 AM 68.0 °F 62.1 °F 81% 30.18 in 10.0 mi SE 9.2 mph - N/A   Clear
9:53 AM 72.0 °F 62.1 °F 71% 30.19 in 10.0 mi SE 13.8 mph - N/A   Clear
10:53 AM 75.0 °F 62.1 °F 64% 30.19 in 10.0 mi SE 16.1 mph 20.7 mph N/A   Clear
11:53 AM 75.9 °F 63.0 °F 64% 30.19 in 10.0 mi SE 15.0 mph - N/A   Clear
12:53 PM 77.0 °F 61.0 °F 58% 30.18 in 10.0 mi SE 19.6 mph 24.2 mph N/A   Clear
1:53 PM 77.0 °F 61.0 °F 58% 30.16 in 10.0 mi SE 15.0 mph 24.2 mph N/A   Mostly Cloudy
2:53 PM 75.9 °F 62.1 °F 62% 30.14 in 10.0 mi SSE 16.1 mph 20.7 mph N/A   Overcast
3:53 PM 75.9 °F 62.1 °F 62% 30.11 in 10.0 mi SE 13.8 mph - N/A   Overcast
4:53 PM 75.0 °F 63.0 °F 66% 30.10 in 10.0 mi SE 12.7 mph - N/A   Overcast
5:53 PM 72.0 °F 63.0 °F 73% 30.10 in 10.0 mi SE 13.8 mph - N/A   Clear
6:53 PM 71.1 °F 63.0 °F 75% 30.10 in 10.0 mi SE 11.5 mph - N/A   Clear
7:53 PM 69.1 °F 64.0 °F 84% 30.09 in 10.0 mi SE 12.7 mph - N/A   Clear
8:53 PM 68.0 °F 64.0 °F 87% 30.10 in 10.0 mi SE 11.5 mph - N/A   Clear
9:53 PM 68.0 °F 64.0 °F 87% 30.12 in 10.0 mi SE 10.4 mph - N/A   Clear
10:53 PM 68.0 °F 64.0 °F 87% 30.12 in 10.0 mi SE 10.4 mph - N/A   Clear
11:53 PM 68.0 °F 64.0 °F 87% 30.13 in 10.0 mi SE 8.1 mph - N/A   Clear